| time (UTC) | temp F | wind direction | speed MPH | gust MPH | rain 1hr in | rain 24hr in | rain mn in | humidity % | barometer mb |
| 20260507064602 | 58 | 0 | 0.0 | 5.0 | 0.00 | 0.00 | 0.00 | 82 | 1013.7 |
| 20260507063057 | 58 | 0 | 0.0 | 1.0 | 0.00 | 0.00 | 0.00 | 79 | 1013.6 |
| 20260507061555 | 57 | 0 | 0.0 | 1.0 | 0.00 | 0.00 | 0.00 | 81 | 1013.5 |
| 20260507060110 | 58 | 0 | 0.0 | 1.0 | 0.00 | 0.00 | 0.00 | 81 | 1013.3 |
| 20260507054556 | 56 | 0 | 0.0 | 1.0 | 0.00 | 0.00 | 0.00 | 84 | 1013.1 |
| 20260507053056 | 56 | 0 | 0.0 | 0.0 | 0.00 | 0.00 | 0.00 | 85 | 1012.9 |
| 20260507051556 | 55 | 0 | 0.0 | 1.0 | 0.00 | 0.00 | 0.00 | 86 | 1012.8 |
| 20260507050100 | 54 | 0 | 0.0 | 0.0 | 0.00 | 0.00 | 0.00 | 87 | 1012.7 |
| 20260507044552 | 54 | 0 | 0.0 | 1.0 | 0.00 | 0.03 | 0.00 | 88 | 1012.6 |
| 20260507043058 | 54 | 0 | 0.0 | 2.0 | 0.00 | 0.03 | 0.00 | 88 | 1012.4 |
| 20260507041556 | 54 | 262 | 0.0 | 2.0 | 0.00 | 0.03 | 0.00 | 89 | 1012.4 |
| 20260507040101 | 53 | 252 | 0.0 | 2.0 | 0.00 | 0.03 | 0.00 | 89 | 1012.3 |
| 20260507034559 | 53 | 0 | 0.0 | 1.0 | 0.00 | 0.07 | 0.00 | 89 | 1012.2 |
| 20260507033054 | 53 | 0 | 0.0 | 1.0 | 0.00 | 0.07 | 0.00 | 88 | 1012.1 |
| 20260507031555 | 53 | 0 | 0.0 | 2.0 | 0.00 | 0.07 | 0.00 | 88 | 1011.9 |
| 20260507030056 | 54 | 186 | 0.0 | 4.0 | 0.00 | 0.07 | 0.00 | 87 | 1011.9 |
| 20260507024600 | 54 | 187 | 0.0 | 3.0 | 0.00 | 0.07 | 0.00 | 86 | 1011.9 |
| 20260507023056 | 54 | 0 | 0.0 | 5.0 | 0.00 | 0.07 | 0.00 | 86 | 1011.9 |
| 20260507021600 | 55 | 259 | 1.0 | 2.0 | 0.00 | 0.07 | 0.00 | 84 | 1011.9 |
| 20260507020059 | 55 | 0 | 1.0 | 2.0 | 0.00 | 0.07 | 0.00 | 84 | 1012.0 |
| 20260507014559 | 55 | 234 | 0.0 | 1.0 | 0.00 | 0.07 | 0.00 | 84 | 1011.8 |
| 20260507013054 | 55 | 234 | 0.0 | 1.0 | 0.00 | 0.07 | 0.00 | 83 | 1011.9 |
| 20260507011556 | 55 | 0 | 0.0 | 1.0 | 0.00 | 0.07 | 0.00 | 83 | 1011.8 |
| 20260507010113 | 55 | 0 | 0.0 | 2.0 | 0.00 | 0.07 | 0.00 | 83 | 1011.7 |
| 20260507004556 | 55 | 229 | 0.0 | 1.0 | 0.00 | 0.07 | 0.00 | 82 | 1011.8 |
| 20260507003057 | 55 | 0 | 1.0 | 3.0 | 0.00 | 0.07 | 0.00 | 81 | 1011.5 |
| 20260507001559 | 55 | 221 | 0.0 | 1.0 | 0.00 | 0.07 | 0.00 | 82 | 1011.5 |
| 20260507000101 | 55 | 222 | 0.0 | 0.0 | 0.00 | 0.07 | 0.00 | 82 | 1011.4 |
| 20260506234614 | 56 | 0 | 0.0 | 0.0 | 0.00 | 0.07 | 0.00 | 81 | 1011.5 |
| 20260506233102 | 56 | 212 | 0.0 | 4.0 | 0.00 | 0.07 | 0.00 | 81 | 1011.4 |
| 20260506231552 | 57 | 194 | 0.0 | 3.0 | 0.00 | 0.07 | 0.00 | 80 | 1011.4 |
| 20260506230057 | 57 | 0 | 2.0 | 5.0 | 0.00 | 0.07 | 0.00 | 79 | 1011.2 |
| 20260506224559 | 57 | 257 | 1.0 | 6.0 | 0.00 | 0.07 | 0.00 | 79 | 1011.0 |
| 20260506223102 | 57 | 245 | 0.0 | 4.0 | 0.00 | 0.07 | 0.00 | 79 | 1011.1 |
| 20260506221555 | 57 | 0 | 0.0 | 5.0 | 0.00 | 0.07 | 0.00 | 78 | 1010.9 |
| 20260506220057 | 57 | 261 | 1.0 | 4.0 | 0.00 | 0.07 | 0.00 | 79 | 1010.9 |
| 20260506214607 | 58 | 277 | 0.0 | 4.0 | 0.00 | 0.07 | 0.07 | 79 | 1010.9 |
| 20260506213058 | 58 | 255 | 2.0 | 7.0 | 0.00 | 0.07 | 0.07 | 79 | 1010.9 |
| 20260506211600 | 58 | 70 | 3.0 | 8.0 | 0.00 | 0.07 | 0.07 | 78 | 1010.7 |
| 20260506210057 | 58 | 272 | 2.0 | 10.0 | 0.00 | 0.07 | 0.07 | 78 | 1010.6 |
| 20260506204616 | 58 | 149 | 2.0 | 12.0 | 0.00 | 0.07 | 0.07 | 78 | 1010.4 |
| 20260506203053 | 58 | 275 | 2.0 | 9.0 | 0.00 | 0.07 | 0.07 | 79 | 1010.2 |
| 20260506201559 | 59 | 209 | 3.0 | 8.0 | 0.00 | 0.07 | 0.07 | 79 | 1010.0 |
| 20260506200056 | 59 | 276 | 2.0 | 9.0 | 0.00 | 0.07 | 0.07 | 81 | 1009.8 |
| 20260506194555 | 59 | 252 | 1.0 | 7.0 | 0.00 | 0.07 | 0.07 | 81 | 1009.4 |
| 20260506193056 | 60 | 68 | 1.0 | 7.0 | 0.00 | 0.07 | 0.07 | 80 | 1009.1 |
| 20260506191557 | 61 | 264 | 2.0 | 7.0 | 0.00 | 0.07 | 0.07 | 78 | 1008.7 |
| 20260506190104 | 61 | 258 | 3.0 | 7.0 | 0.00 | 0.07 | 0.07 | 75 | 1008.3 |
| 20260506184558 | 62 | 269 | 1.0 | 3.0 | 0.00 | 0.07 | 0.07 | 75 | 1008.1 |
| 20260506183057 | 62 | 250 | 1.0 | 7.0 | 0.00 | 0.07 | 0.07 | 74 | 1007.8 |
| 20260506181559 | 64 | 253 | 1.0 | 6.0 | 0.00 | 0.07 | 0.07 | 70 | 1007.3 |
| 20260506180052 | 64 | 0 | 2.0 | 5.0 | 0.00 | 0.07 | 0.07 | 66 | 1007.0 |
| 20260506174559 | 65 | 360 | 3.0 | 6.0 | 0.00 | 0.07 | 0.07 | 65 | 1006.9 |
| 20260506173128 | 66 | 283 | 1.0 | 8.0 | 0.00 | 0.07 | 0.07 | 63 | 1006.5 |
| 20260506171556 | 66 | 244 | 2.0 | 9.0 | 0.00 | 0.07 | 0.07 | 61 | 1006.2 |
| 20260506170056 | 66 | 55 | 2.0 | 8.0 | 0.00 | 0.07 | 0.07 | 60 | 1006.2 |
| 20260506164552 | 67 | 204 | 3.0 | 9.0 | 0.00 | 0.07 | 0.07 | 60 | 1006.0 |
| 20260506163056 | 67 | 244 | 2.0 | 10.0 | 0.00 | 0.07 | 0.07 | 61 | 1006.0 |
| 20260506161600 | 68 | 81 | 2.0 | 9.0 | 0.00 | 0.07 | 0.07 | 61 | 1006.0 |
| 20260506160109 | 68 | 237 | 2.0 | 8.0 | 0.00 | 0.07 | 0.07 | 62 | 1005.8 |
| 20260506154601 | 68 | 264 | 2.0 | 10.0 | 0.00 | 0.07 | 0.07 | 61 | 1005.7 |
| 20260506153058 | 68 | 307 | 2.0 | 9.0 | 0.00 | 0.07 | 0.07 | 61 | 1005.8 |
| 20260506151558 | 69 | 243 | 2.0 | 9.0 | 0.00 | 0.07 | 0.07 | 60 | 1005.8 |
| 20260506144610 | 69 | 202 | 1.0 | 4.0 | 0.00 | 0.07 | 0.07 | 57 | 1006.0 |
| 20260506143056 | 69 | 164 | 0.0 | 4.0 | 0.00 | 0.07 | 0.07 | 54 | 1005.9 |
| 20260506141553 | 68 | 0 | 1.0 | 4.0 | 0.00 | 0.07 | 0.07 | 56 | 1006.1 |
| 20260506140106 | 68 | 0 | 0.0 | 2.0 | 0.00 | 0.07 | 0.07 | 56 | 1006.2 |
| 20260506134601 | 68 | 148 | 0.0 | 3.0 | 0.00 | 0.07 | 0.07 | 59 | 1006.3 |
| 20260506133130 | 67 | 159 | 0.0 | 4.0 | 0.00 | 0.07 | 0.07 | 60 | 1006.5 |
| 20260506131554 | 67 | 173 | 0.0 | 3.0 | 0.00 | 0.07 | 0.07 | 57 | 1006.5 |
| 20260506130136 | 66 | 0 | 0.0 | 3.0 | 0.00 | 0.07 | 0.07 | 58 | 1006.7 |
| 20260506124554 | 66 | 165 | 0.0 | 3.0 | 0.00 | 0.07 | 0.07 | 63 | 1006.8 |
| 20260506123052 | 66 | 198 | 0.0 | 3.0 | 0.00 | 0.07 | 0.07 | 63 | 1006.8 |
| 20260506121556 | 65 | 231 | 0.0 | 4.0 | 0.00 | 0.07 | 0.07 | 64 | 1006.8 |
| 20260506120103 | 65 | 259 | 1.0 | 4.0 | 0.00 | 0.07 | 0.07 | 66 | 1006.9 |
| 20260506114554 | 65 | 149 | 1.0 | 4.0 | 0.00 | 0.07 | 0.07 | 67 | 1006.9 |
| 20260506113058 | 64 | 0 | 0.0 | 2.0 | 0.00 | 0.07 | 0.07 | 69 | 1007.0 |
| 20260506111554 | 65 | 189 | 1.0 | 3.0 | 0.00 | 0.07 | 0.07 | 70 | 1007.1 |
| 20260506110057 | 64 | 162 | 1.0 | 3.0 | 0.00 | 0.07 | 0.07 | 72 | 1007.4 |
| 20260506104605 | 64 | 0 | 0.0 | 2.0 | 0.00 | 0.07 | 0.07 | 72 | 1007.5 |
| 20260506103057 | 62 | 236 | 0.0 | 2.0 | 0.00 | 0.07 | 0.07 | 73 | 1007.5 |
| 20260506101550 | 61 | 170 | 0.0 | 6.0 | 0.00 | 0.07 | 0.07 | 78 | 1007.6 |
| 20260506100108 | 60 | 350 | 1.0 | 5.0 | 0.00 | 0.07 | 0.07 | 79 | 1007.7 |
| 20260506094602 | 58 | 279 | 1.0 | 6.0 | 0.00 | 0.10 | 0.07 | 81 | 1007.9 |
| 20260506093053 | 58 | 254 | 2.0 | 7.0 | 0.00 | 0.10 | 0.07 | 81 | 1008.0 |
| 20260506091557 | 58 | 259 | 1.0 | 7.0 | 0.00 | 0.10 | 0.07 | 83 | 1008.0 |
| 20260506090052 | 58 | 252 | 1.0 | 8.0 | 0.00 | 0.10 | 0.07 | 84 | 1008.0 |
| 20260506084559 | 59 | 263 | 2.0 | 6.0 | 0.00 | 0.14 | 0.07 | 83 | 1008.0 |
| 20260506083057 | 59 | 0 | 0.0 | 3.0 | 0.00 | 0.14 | 0.07 | 85 | 1008.0 |
| 20260506081606 | 58 | 0 | 1.0 | 3.0 | 0.00 | 0.14 | 0.07 | 86 | 1008.0 |
| 20260506073055 | 56 | 205 | 0.0 | 1.0 | 0.00 | 0.19 | 0.07 | 92 | 1008.1 |
| 20260506071558 | 56 | 0 | 0.0 | 0.0 | 0.00 | 0.19 | 0.07 | 93 | 1008.0 |